COSMOS 2084

Last updated on Sun Oct 26 2025 00:02:19 GMT+0000 (Coordinated Universal Time)

1 20663U 90055A 25298.45673052 .00006158 00000+0 44334-3 0 9994 2 20663 62.7904 76.4550 0039946 169.0801 191.1176 15.04564884915961
UTC large
Height (km)
Speed (km/s)
/
Latitude / Longitude
Inclination (degrees)
Orbital Period (minutes)
Azimuth
Elevation
Range (km)
Doppler Factor

Next 0 passes for location: London (51.5072 / 0.1276)

Sorry there are no passes over London.